Frankfort, MI

3:03 PM EDT on June 25, 2017 (GMT -0400)
Frankfort

Weather History for KFKS - March, 2013

Change the Weather History Date:

Saturday, March 23, 2013

  Actual Average (KMBL) Record (KMBL)
Temperature  
Mean Temperature 30 °F -  
Max Temperature 32 °F 44 °F 68 °F (1987)
Min Temperature 28 °F 27 °F 8 °F (2014)
Degree Days  
Heating Degree Days 35    
Moisture  
Dew Point 24 °F    
Average Humidity 75    
Maximum Humidity 87    
Minimum Humidity 65    
Precipitation  
Precipitation 0.00 in - - ()
Sea Level Pressure  
Sea Level Pressure 30.09 in    
Wind  
Wind Speed 3 mph (NNW)    
Max Wind Speed 10 mph    
Max Gust Speed -    
Visibility 10 miles    
Events Rain    
Averages and records for this station are not official NWS values.
T = Trace of Precipitation, MM = Missing Value Source: NWS Daily Summary

Daily Weather History Graph

Daily Weather History Graph

Search for Another Location

Airport or City:

Trip Planner

Search our weather history database for the weather conditions in past years. The results will help you decide how hot, cold, wet, or windy it might be!

Date:

Astronomy

Mar. 23, 2013 Rise Set
Actual Time 7:41 AM EDT 8:01 PM EDT
Civil Twilight 7:12 AM EDT 8:30 PM EDT
Nautical Twilight 6:38 AM EDT 9:04 PM EDT
Astronomical Twilight 6:03 AM EDT 9:40 PM EDT
Moon 4:20 PM EDT (3/23) 5:26 AM EDT (3/23)
Length of Visible Light 13h 17m
Length of Day
12h 19m
Waxing Gibbous, 85% of the Moon is Illuminated
Mar 23
Waxing Gibbous
Mar 27
Full
Apr 3
Last Quarter
Apr 10
New
Apr 18
First Quarter

Hourly Weather History & Observations

Time (EDT) Temp. Windchill Dew Point Humidity Pressure Visibility Wind Dir Wind Speed Gust Speed Precip Events Conditions
12:13 AM 31.1 °F 27.7 °F 23.0 °F 72% 30.05 in 10.0 mi North 3.5 mph - N/A   Overcast
12:33 AM 30.7 °F 27.3 °F 22.3 °F 71% 30.05 in 10.0 mi North 3.5 mph - N/A   Overcast
12:53 AM 30.7 °F 27.3 °F 21.4 °F 68% 30.05 in 10.0 mi ENE 3.5 mph - N/A   Overcast
1:14 AM 30.2 °F 25.4 °F 22.3 °F 72% 30.05 in 10.0 mi ENE 4.6 mph - N/A   Overcast
1:34 AM 30.4 °F 22.9 °F 22.1 °F 71% 30.05 in 10.0 mi NE 8.1 mph - N/A   Overcast
1:56 AM 30.0 °F 26.5 °F 23.0 °F 75% 30.05 in 10.0 mi NE 3.5 mph - N/A   Overcast
2:16 AM 29.8 °F - 23.0 °F 76% 30.06 in 10.0 mi Calm Calm - N/A   Overcast
2:36 AM 29.7 °F - 23.0 °F 76% 30.06 in 10.0 mi Calm Calm - N/A   Overcast
2:56 AM 29.8 °F - 22.8 °F 75% 30.06 in 10.0 mi Calm Calm - N/A   Overcast
3:16 AM 29.7 °F - 22.6 °F 75% 30.06 in 10.0 mi Calm Calm - N/A   Overcast
3:37 AM 29.3 °F - 23.0 °F 77% 30.06 in 10.0 mi Calm Calm - N/A   Overcast
3:57 AM 29.3 °F 24.3 °F 22.8 °F 77% 30.06 in 10.0 mi North 4.6 mph - N/A   Overcast
4:17 AM 29.1 °F 25.4 °F 22.5 °F 76% 30.05 in 10.0 mi North 3.5 mph - N/A   Overcast
4:32 AM 29.1 °F - 22.5 °F 76% 30.06 in 10.0 mi Calm Calm - N/A   Overcast
4:52 AM 29.1 °F - 22.8 °F 77% 30.06 in 10.0 mi Calm Calm - N/A   Overcast
5:12 AM 29.1 °F 25.4 °F 23.2 °F 78% 30.06 in 10.0 mi North 3.5 mph - N/A   Overcast
5:32 AM 29.1 °F 24.1 °F 23.0 °F 78% 30.06 in 10.0 mi North 4.6 mph - N/A   Overcast
5:52 AM 29.1 °F - 23.0 °F 78% 30.06 in 10.0 mi Calm Calm - N/A   Overcast
6:13 AM 29.1 °F - 23.0 °F 78% 30.06 in 10.0 mi Calm Calm - N/A   Overcast
6:33 AM 29.3 °F 25.6 °F 21.9 °F 74% 30.06 in 10.0 mi NNW 3.5 mph - N/A   Overcast
6:53 AM 29.1 °F 25.4 °F 21.6 °F 73% 30.06 in 10.0 mi North 3.5 mph - N/A   Overcast
7:13 AM 29.1 °F 23.0 °F 21.2 °F 72% 30.07 in 10.0 mi North 5.8 mph - N/A   Overcast
7:33 AM 28.9 °F 23.9 °F 20.8 °F 72% 30.07 in 10.0 mi North 4.6 mph - N/A   Overcast
7:53 AM 28.9 °F - 21.2 °F 73% 30.08 in 10.0 mi Calm Calm - N/A   Overcast
8:13 AM 28.8 °F 25.0 °F 21.2 °F 73% 30.08 in 10.0 mi ENE 3.5 mph - N/A   Overcast
8:33 AM 28.9 °F - 21.2 °F 73% 30.09 in 10.0 mi Calm Calm - N/A   Overcast
9:14 AM 29.3 °F - 21.9 °F 74% 30.10 in 10.0 mi Calm Calm - N/A   Overcast
9:34 AM 29.5 °F - 22.8 °F 76% 30.10 in 10.0 mi Calm Calm - N/A   Overcast
9:54 AM 30.0 °F - 23.2 °F 76% 30.11 in 10.0 mi Calm Calm - N/A   Overcast
10:14 AM 31.5 °F - 23.9 °F 74% 30.10 in 10.0 mi Calm Calm - N/A   Overcast
10:34 AM 30.0 °F 26.5 °F 25.3 °F 83% 30.10 in 2.0 mi NE 3.5 mph - N/A   Haze
10:54 AM 30.7 °F - 27.1 °F 86% 30.11 in 1.0 mi Calm Calm - N/A Rain Light Freezing Rain
11:14 AM 30.4 °F 25.6 °F 27.0 °F 87% 30.11 in 1.8 mi WNW 4.6 mph - N/A Rain Light Freezing Rain
11:35 AM 31.5 °F - 27.1 °F 84% 30.12 in 10.0 mi Calm Calm - N/A   Overcast
11:55 AM 32.0 °F - 26.1 °F 79% 30.13 in 10.0 mi Calm Calm - N/A   Overcast
12:15 PM 32.0 °F 27.5 °F 24.4 °F 74% 30.13 in 10.0 mi NW 4.6 mph - N/A   Overcast
12:35 PM 32.0 °F 26.4 °F 24.4 °F 74% 30.13 in 10.0 mi NW 5.8 mph - N/A   Overcast
12:55 PM 32.0 °F 26.4 °F 24.4 °F 74% 30.13 in 10.0 mi NW 5.8 mph - N/A   Overcast
1:15 PM 32.0 °F 27.5 °F 24.8 °F 75% 30.12 in 10.0 mi NNW 4.6 mph - N/A   Overcast
1:35 PM 32.0 °F 26.4 °F 24.6 °F 74% 30.12 in 10.0 mi NW 5.8 mph - N/A   Overcast
1:56 PM 32.0 °F 26.4 °F 24.6 °F 74% 30.12 in 10.0 mi NNW 5.8 mph - N/A   Overcast
2:16 PM 32.0 °F 25.6 °F 24.8 °F 75% 30.12 in 10.0 mi NNW 6.9 mph - N/A   Overcast
2:36 PM 32.2 °F 25.0 °F 25.5 °F 76% 30.12 in 10.0 mi NW 8.1 mph - N/A   Overcast
2:56 PM 32.2 °F 23.8 °F 25.7 °F 77% 30.11 in 10.0 mi NNW 10.4 mph - N/A   Overcast
3:16 PM 32.0 °F 24.8 °F 25.2 °F 76% 30.11 in 10.0 mi NNW 8.1 mph - N/A   Overcast
3:37 PM 32.0 °F 25.6 °F 25.5 °F 77% 30.10 in 10.0 mi NNW 6.9 mph - N/A   Overcast
3:52 PM 32.0 °F 24.8 °F 25.5 °F 77% 30.11 in 10.0 mi NNW 8.1 mph - N/A   Overcast
4:12 PM 32.0 °F 24.2 °F 25.5 °F 77% 30.11 in 10.0 mi NW 9.2 mph - N/A   Overcast
4:32 PM 32.0 °F 25.6 °F 25.5 °F 77% 30.11 in 10.0 mi NNW 6.9 mph - N/A   Overcast
4:52 PM 32.0 °F 26.4 °F 25.7 °F 78% 30.10 in 10.0 mi NNW 5.8 mph - N/A   Overcast
5:13 PM 31.8 °F 27.3 °F 26.4 °F 80% 30.10 in 10.0 mi NNW 4.6 mph - N/A   Overcast
5:33 PM 32.0 °F 28.7 °F 26.8 °F 81% 30.10 in 10.0 mi NNW 3.5 mph - N/A   Overcast
5:53 PM 32.2 °F 28.9 °F 25.7 °F 77% 30.10 in 10.0 mi NNW 3.5 mph - N/A   Overcast
6:13 PM 32.4 °F 26.9 °F 25.9 °F 77% 30.10 in 10.0 mi NW 5.8 mph - N/A   Overcast
6:33 PM 32.4 °F 27.9 °F 24.3 °F 72% 30.10 in 10.0 mi North 4.6 mph - N/A   Overcast
6:53 PM 32.5 °F 27.1 °F 24.6 °F 73% 30.10 in 10.0 mi NNW 5.8 mph - N/A   Overcast
7:13 PM 32.5 °F 28.1 °F 23.5 °F 69% 30.10 in 10.0 mi North 4.6 mph - N/A   Overcast
7:33 PM 32.9 °F - 22.5 °F 65% 30.10 in 10.0 mi Calm Calm - N/A   Overcast
7:54 PM 32.4 °F 26.9 °F 23.9 °F 71% 30.10 in 10.0 mi NNW 5.8 mph - N/A   Overcast
8:14 PM 32.0 °F - 25.2 °F 76% 30.10 in 10.0 mi Calm Calm - N/A   Overcast
8:34 PM 32.0 °F - 25.2 °F 76% 30.09 in 10.0 mi Calm Calm - N/A   Overcast
8:54 PM 32.0 °F 28.7 °F 24.8 °F 75% 30.09 in 10.0 mi NNE 3.5 mph - N/A   Overcast
9:14 PM 32.0 °F - 24.8 °F 75% 30.09 in 10.0 mi Calm Calm - N/A   Overcast
9:34 PM 32.0 °F - 24.6 °F 74% 30.09 in 10.0 mi Calm Calm - N/A   Overcast
9:54 PM 32.0 °F - 24.1 °F 73% 30.10 in 10.0 mi Calm Calm - N/A   Overcast
10:15 PM 32.0 °F - 24.1 °F 73% 30.09 in 10.0 mi Calm Calm - N/A   Overcast
10:35 PM 32.0 °F - 24.3 °F 73% 30.09 in 10.0 mi Calm Calm - N/A   Overcast
10:55 PM 32.0 °F - 24.3 °F 73% 30.09 in 10.0 mi Calm Calm - N/A   Overcast
11:15 PM 31.8 °F - 24.6 °F 75% 30.09 in 10.0 mi Calm Calm - N/A   Overcast
11:35 PM 32.0 °F - 25.0 °F 75% 30.09 in 10.0 mi Calm Calm - N/A   Overcast
11:55 PM 32.0 °F - 25.5 °F 77% 30.09 in 10.0 mi Calm Calm - N/A   Overcast